Lid_Strength_Index
3 3 3 3 3 3 3 3 3 4 3 4 4 4 5 4 3 7 10 7 6 4 5 8 8 8 8 9 9 9 14 14 13 14 13 12 13 11 10 12 11 10 11 10 9
3 3 3 3 3 3 3 3 3 4 4 4 4 4 4 4 6 9 7 5 5 6 8 9 10 9 10 9 10 12 13 13 12 13 13 12 12 12 13 12 11 10 9 9 9
3 3 3 3 3 3 3 3 3 3 4 4 4 4 4 5 8 10 6 6 6 7 8 9 9 9 10 10 10 11 13 12 12 11 11 12 13 12 13 13 11 13 11 10 10
3 3 3 3 3 3 3 3 3 3 3 4 4 4 4 6 13 9 6 7 7 8 9 9 10 11 11 12 10 14 11 12 11 11 12 13 12 13 12 11 10 11 11 11 11
3 3 3 3 3 3 3 3 3 3 3 4 4 3 6 11 11 8 7 7 8 8 10 10 11 11 12 12 12 13 12 11 11 12 12 11 13 13 12 10 10 11 11 12 12
3 3 3 3 3 3 3 3 3 4 4 4 4 4 8 13 8 8 8 8 8 9 10 10 11 11 12 12 13 11 12 12 11 12 12 13 13 13 12 11 12 12 12 12 12
3 3 3 3 3 3 3 3 4 4 4 4 4 5 10 11 8 8 8 9 8 9 10 9 9 11 11 12 11 11 14 12 12 12 13 13 15 14 12 12 13 13 12 13 12
3 3 3 3 3 3 4 4 5 5 4 5 5 7 12 8 8 9 8 9 8 8 9 8 9 10 11 11 12 14 13 16 13 13 13 13 17 13 12 13 13 13 14 14 13
2 2 2 3 3 3 4 6 6 5 5 5 7 9 12 8 10 9 9 10 9 9 8 9 9 12 12 15 15 14 17 16 14 12 12 14 16 12 12 12 13 14 14 14 14
2 2 2 2 2 3 5 6 6 6 6 8 10 12 12 13 10 10 9 9 10 10 11 12 13 15 15 16 18 18 18 16 16 13 14 15 14 12 12 12 14 15 15 15 15
1 2 2 2 2 4 6 6 9 10 9 11 11 12 12 11 9 10 9 11 11 12 15 13 17 18 15 14 14 15 17 17 14 12 16 15 14 13 12 13 14 14 15 16 16
1 1 1 2 2 4 5 8 9 9 13 9 11 11 11 10 13 12 10 13 14 16 14 16 18 15 14 13 15 15 17 17 14 14 14 15 15 14 13 14 14 15 16 16 16
2 1 1 2 2 4 7 9 6 6 12 12 11 12 12 11 13 13 12 12 15 16 16 18 15 14 15 15 16 16 17 16 18 16 14 16 18 17 15 13 14 15 15 16 16
2 2 1 2 4 5 8 6 5 5 13 12 14 13 11 11 14 12 12 13 15 17 16 16 14 15 16 16 15 19 15 16 17 19 21 17 24 17 16 16 16 15 16 16 16
2 2 1 4 5 6 7 5 5 7 20 13 14 10 11 13 14 14 12 13 16 16 16 17 17 18 18 16 15 17 15 17 17 20 19 18 25 18 16 18 16 16 16 16 15
2 1 2 4 4 7 5 5 7 14 20 15 13 14 14 14 14 13 14 13 14 16 16 16 15 16 16 14 15 14 16 16 18 19 25 20 21 20 20 20 16 16 16 16 17
1 2 4 4 7 5 6 7 14 18 11 15 15 14 15 15 15 15 16 17 18 20 19 18 17 16 16 17 15 16 18 22 23 24 22 18 20 20 19 18 17 19 18 18 17
2 3 5 5 5 5 5 9 17 14 14 13 14 15 17 15 16 16 17 18 16 18 19 19 20 18 16 17 19 18 19 23 28 25 23 17 24 19 19 19 19 18 20 17 16
2 4 5 6 5 4 7 15 15 13 13 15 13 16 14 16 15 16 17 17 16 17 20 19 19 17 16 16 17 18 19 18 24 24 25 21 18 19 18 19 19 20 17 18 18
3 5 7 6 5 5 10 13 12 12 13 13 15 14 15 17 17 17 17 16 17 16 17 18 22 17 17 16 16 17 16 22 21 28 28 21 20 19 21 21 20 21 20 19 18
4 7 6 5 5 7 13 12 12 12 13 14 14 15 15 16 16 17 16 16 15 17 16 17 20 19 18 22 21 20 20 19 20 21 27 26 22 21 22 23 23 22 19 21 20
5 11 5 4 10 12 12 12 12 13 13 14 14 15 16 16 17 17 16 17 15 16 18 17 19 21 20 21 18 18 20 18 23 25 24 25 23 21 23 24 23 21 19 20 19
7 8 5 5 12 12 11 12 12 13 13 13 14 13 15 16 17 16 16 16 15 16 18 17 19 22 19 19 19 21 19 18 21 22 24 25 21 23 24 23 22 24 23 21 21
7 11 9 8 9 10 11 12 13 12 12 12 13 14 16 17 16 17 17 16 16 16 16 16 19 21 21 22 22 24 21 19 20 25 24 22 21 19 23 23 24 24 24 24 24
5 10 10 11 11 10 11 11 12 12 12 12 14 15 15 17 18 19 17 17 16 15 16 18 21 22 22 22 25 25 24 20 21 24 23 25 27 18 18 24 26 27 27 26 27
8 9 9 10 10 11 11 12 12 11 11 12 14 13 14 16 16 19 18 17 17 17 18 18 21 22 25 26 28 28 23 22 20 23 21 21 21 23 26 27 28 28 28 29 28
5 5 7 9 10 12 11 11 11 10 10 9 12 13 15 15 14 15 16 16 17 17 18 19 21 23 24 24 23 23 25 24 25 24 24 25 21 25 25 26 25 26 27 27 27